N5TM-4 Weather Reports


Display with metric or nautical units.
time (UTC)temp
F
wind
direction
speed
MPH
gust
MPH
rain 1hr
in
rain 24hr
in
rain mn
in
humidity
%
barometer
mb
20260901225027 88 117 2.0 6.0 0.00 0.00 0.00 60 1012.8
20260901224527 88 136 1.0 5.0 0.00 0.00 0.00 60 1012.8
20260901224030 88 132 2.0 5.0 0.00 0.00 0.00 60 1012.9
20260901223528 88 122 2.0 4.0 0.00 0.00 0.00 60 1012.8
20260901223027 88 146 2.0 4.0 0.00 0.00 0.00 59 1012.8
20260901222527 88 106 2.0 4.0 0.00 0.00 0.00 60 1012.8
20260901222031 89 124 2.0 4.0 0.00 0.00 0.00 60 1012.8
20260901221526 89 171 2.0 4.0 0.00 0.00 0.00 59 1012.8
20260901221026 89 120 2.0 4.0 0.00 0.00 0.00 58 1012.9
20260901220525 89 109 1.0 4.0 0.00 0.00 0.00 57 1012.8
20260901220025 90 125 1.0 4.0 0.00 0.00 0.00 54 1012.9
20260901215527 90 125 1.0 4.0 0.00 0.00 0.00 54 1013.1
20260901215022 90 65 1.0 3.0 0.00 0.00 0.00 55 1013.1
20260901214523 90 64 1.0 3.0 0.00 0.00 0.00 51 1013.2
20260901214023 90 63 1.0 3.0 0.00 0.00 0.00 50 1013.3
20260901213522 90 65 1.0 3.0 0.00 0.00 0.00 51 1013.4
20260901213027 90 11 0.0 3.0 0.00 0.00 0.00 53 1013.4
20260901212522 90 13 1.0 3.0 0.00 0.00 0.00 54 1013.3
20260901212023 90 78 1.0 5.0 0.00 0.00 0.00 57 1013.3
20260901211522 90 11 1.0 5.0 0.00 0.00 0.00 57 1013.3
20260901211025 90 109 0.0 3.0 0.00 0.00 0.00 56 1013.2
20260901210521 89 110 1.0 3.0 0.00 0.00 0.00 58 1013.1
20260901210021 89 121 0.0 4.0 0.00 0.00 0.00 58 1013.1
20260901205522 89 121 3.0 4.0 0.00 0.00 0.00 58 1013.1
20260901205021 89 118 1.0 4.0 0.00 0.00 0.00 57 1013.1
20260901204522 90 117 1.0 5.0 0.00 0.00 0.00 57 1013.1
20260901204019 91 25 1.0 6.0 0.00 0.00 0.00 57 1013.3
20260901203519 91 13 2.0 6.0 0.00 0.00 0.00 55 1013.4
20260901203018 91 350 2.0 8.0 0.00 0.00 0.00 54 1013.5
20260901202516 91 355 3.0 10.0 0.00 0.00 0.00 54 1013.6
20260901202019 91 17 4.0 11.0 0.00 0.00 0.00 52 1013.7
20260901201515 91 348 3.0 10.0 0.00 0.00 0.00 51 1013.9
20260901201016 92 32 4.0 9.0 0.00 0.00 0.00 51 1014.0
20260901200514 92 67 3.0 11.0 0.00 0.00 0.00 51 1014.1
20260901200016 93 351 4.0 11.0 0.00 0.00 0.00 52 1014.0
20260901195513 93 259 4.0 9.0 0.00 0.00 0.00 53 1014.2
20260901195012 93 110 4.0 9.0 0.00 0.00 0.00 53 1014.2
20260901194512 93 108 2.0 8.0 0.00 0.00 0.00 54 1014.2
20260901194016 93 71 3.0 8.0 0.00 0.00 0.00 54 1014.3
20260901193614 93 109 1.0 7.0 0.00 0.00 0.00 54 1014.2
20260901193011 93 114 2.0 7.0 0.00 0.00 0.00 53 1014.2
20260901192513 94 322 2.0 5.0 0.00 0.00 0.00 53 1014.2
20260901192009 93 328 1.0 5.0 0.00 0.00 0.00 56 1014.2
20260901191513 92 328 2.0 5.0 0.00 0.00 0.00 56 1014.2
20260901191009 92 360 2.0 8.0 0.00 0.00 0.00 56 1014.3
20260901190507 91 78 3.0 8.0 0.00 0.00 0.00 56 1014.3
20260901190006 91 86 3.0 10.0 0.00 0.00 0.00 56 1014.4
20260901185505 91 23 3.0 10.0 0.00 0.00 0.00 57 1014.5
20260901185004 91 108 2.0 7.0 0.00 0.00 0.00 56 1014.5
20260901184504 92 58 1.0 6.0 0.00 0.00 0.00 56 1014.6
20260901184003 91 227 2.0 6.0 0.00 0.00 0.00 57 1014.6
20260901183603 91 86 3.0 7.0 0.00 0.00 0.00 56 1014.7
20260901183008 91 78 3.0 7.0 0.00 0.00 0.00 54 1014.7
20260901182502 92 111 2.0 9.0 0.00 0.00 0.00 57 1014.8
20260901182001 92 37 1.0 9.0 0.00 0.00 0.00 56 1014.8
20260901181600 92 355 3.0 9.0 0.00 0.00 0.00 57 1014.9
20260901181059 91 5 2.0 5.0 0.00 0.00 0.00 59 1014.9
20260901180558 91 77 1.0 5.0 0.00 0.00 0.00 59 1014.9
20260901180057 91 313 2.0 6.0 0.00 0.00 0.00 60 1015.0
20260901175557 90 22 3.0 9.0 0.00 0.00 0.00 60 1015.0
20260901175056 90 5 4.0 9.0 0.00 0.00 0.00 61 1015.1
20260901174554 89 98 3.0 8.0 0.00 0.00 0.00 61 1015.3
20260901174054 89 76 3.0 6.0 0.00 0.00 0.00 62 1015.4
20260901173556 89 17 2.0 6.0 0.00 0.00 0.00 63 1015.6
20260901173119 89 76 2.0 6.0 0.00 0.00 0.00 63 1015.7
20260901172550 88 11 2.0 8.0 0.00 0.00 0.00 63 1015.8
20260901172050 88 54 3.0 11.0 0.00 0.00 0.00 64 1015.9
20260901171555 88 12 3.0 8.0 0.00 0.00 0.00 64 1016.0
20260901171049 88 329 2.0 6.0 0.00 0.00 0.00 66 1016.1
20260901170550 88 70 2.0 9.0 0.00 0.00 0.00 65 1016.1
20260901170055 88 12 3.0 9.0 0.00 0.00 0.00 65 1016.2
20260901165548 88 33 3.0 8.0 0.00 0.00 0.00 66 1016.3
20260901165048 88 73 2.0 6.0 0.00 0.00 0.00 66 1016.2
20260901164549 88 5 1.0 8.0 0.00 0.00 0.00 67 1016.2
20260901164046 88 82 1.0 8.0 0.00 0.00 0.00 66 1016.3
20260901163546 88 360 3.0 8.0 0.00 0.00 0.00 67 1016.1
20260901163105 87 17 3.0 8.0 0.00 0.00 0.00 67 1016.2
20260901162545 87 338 1.0 9.0 0.00 0.00 0.00 69 1016.2
20260901162045 87 25 2.0 9.0 0.00 0.00 0.00 69 1016.2
20260901161551 87 14 0.0 8.0 0.00 0.00 0.00 69 1016.2
20260901161045 87 302 3.0 8.0 0.00 0.00 0.00 69 1016.2
20260901160543 87 360 3.0 8.0 0.00 0.00 0.00 69 1016.2
20260901160048 87 313 4.0 8.0 0.00 0.00 0.00 70 1016.2
20260901155544 87 5 2.0 9.0 0.00 0.00 0.00 70 1016.1
20260901155044 87 360 4.0 10.0 0.00 0.00 0.00 70 1016.0
20260901154547 87 50 5.0 10.0 0.00 0.00 0.00 70 1016.0
20260901154046 87 15 4.0 8.0 0.00 0.00 0.00 71 1016.0
20260901153543 87 304 3.0 9.0 0.00 0.00 0.00 71 1016.0
20260901153041 87 350 3.0 9.0 0.00 0.00 0.00 72 1016.0
20260901152540 87 18 2.0 8.0 0.00 0.00 0.00 71 1016.0
20260901152040 87 5 3.0 9.0 0.00 0.00 0.00 72 1016.0
20260901151549 87 351 4.0 9.0 0.00 0.00 0.00 72 1016.0
20260901151036 86 315 4.0 9.0 0.00 0.00 0.00 74 1016.1
20260901150533 85 319 3.0 8.0 0.00 0.00 0.00 75 1016.0
20260901150033 85 5 2.0 8.0 0.00 0.00 0.00 76 1016.0
20260901145533 85 355 3.0 9.0 0.00 0.00 0.00 77 1016.1
20260901145030 84 335 3.0 9.0 0.00 0.00 0.00 77 1016.1
20260901144532 84 315 2.0 6.0 0.00 0.00 0.00 79 1016.2
20260901144028 83 325 2.0 8.0 0.00 0.00 0.00 79 1016.3
20260901143527 83 51 3.0 8.0 0.00 0.00 0.00 79 1016.3
20260901143027 83 17 3.0 8.0 0.00 0.00 0.00 80 1016.2
20260901142525 82 5 3.0 8.0 0.00 0.00 0.00 81 1016.3
20260901142028 82 19 3.0 8.0 0.00 0.00 0.00 82 1016.2
20260901141533 81 355 3.0 6.0 0.00 0.00 0.00 82 1016.2
20260901141024 81 355 2.0 4.0 0.00 0.00 0.00 83 1016.2
20260901140524 81 345 1.0 4.0 0.00 0.00 0.00 83 1016.3
20260901140024 81 15 1.0 3.0 0.00 0.00 0.00 84 1016.4
20260901135527 81 360 0.0 2.0 0.00 0.00 0.00 85 1016.3
20260901135024 80 360 0.0 2.0 0.00 0.00 0.00 85 1016.3
20260901134524 80 360 0.0 2.0 0.00 0.00 0.00 85 1016.4
20260901134024 80 360 0.0 2.0 0.00 0.00 0.00 86 1016.3
20260901133524 80 360 0.0 2.0 0.00 0.00 0.00 86 1016.3
20260901133022 80 360 0.0 2.0 0.00 0.00 0.00 86 1016.3
20260901132522 80 360 0.0 3.0 0.00 0.00 0.00 86 1016.2
20260901132021 80 360 0.0 5.0 0.00 0.00 0.00 86 1016.1
20260901131523 79 360 1.0 5.0 0.00 0.00 0.00 87 1016.0
20260901131022 79 5 2.0 4.0 0.00 0.00 0.00 87 1015.9
20260901130521 79 334 0.0 2.0 0.00 0.00 0.00 88 1015.9
20260901130017 79 333 1.0 3.0 0.00 0.00 0.00 88 1015.8
20260901125516 79 330 0.0 3.0 0.00 0.00 0.00 88 1015.7
20260901125016 79 328 0.0 3.0 0.00 0.00 0.00 88 1015.7
20260901124516 79 328 0.0 3.0 0.00 0.00 0.00 88 1015.6
20260901124016 79 336 1.0 4.0 0.00 0.00 0.00 88 1015.5
20260901123516 78 336 1.0 4.0 0.00 0.00 0.00 88 1015.4
20260901123029 78 355 1.0 4.0 0.00 0.00 0.00 88 1015.4
20260901122517 78 30 1.0 3.0 0.00 0.00 0.00 88 1015.3
20260901122016 78 30 1.0 3.0 0.00 0.00 0.00 88 1015.3
20260901121518 78 30 1.0 3.0 0.00 0.00 0.00 88 1015.3
20260901121015 78 30 0.0 1.0 0.00 0.00 0.00 88 1015.3
20260901120513 78 30 0.0 1.0 0.00 0.00 0.00 88 1015.1
20260901120014 78 30 0.0 2.0 0.00 0.00 0.00 88 1015.0
20260901115514 78 30 0.0 2.0 0.00 0.00 0.00 88 1014.9
20260901115014 78 30 0.0 2.0 0.00 0.00 0.00 88 1014.9
20260901114513 78 30 0.0 3.0 0.00 0.00 0.00 88 1015.0
20260901114013 78 30 1.0 3.0 0.00 0.00 0.00 88 1014.9
20260901113513 78 157 1.0 3.0 0.00 0.00 0.00 88 1014.9
20260901113013 78 157 0.0 3.0 0.00 0.00 0.00 88 1014.9
20260901112512 78 157 1.0 2.0 0.00 0.00 0.00 88 1015.0
20260901112012 78 157 0.0 1.0 0.00 0.00 0.00 88 1015.0
20260901111512 78 157 0.0 2.0 0.00 0.00 0.00 88 1015.1
20260901111012 78 157 0.0 2.0 0.00 0.00 0.00 88 1015.1
20260901110511 78 157 0.0 1.0 0.00 0.00 0.00 88 1015.0
20260901110011 78 157 0.0 2.0 0.00 0.00 0.00 88 1014.9
20260901105513 78 157 0.0 2.0 0.00 0.00 0.00 88 1014.9
20260901105010 78 157 0.0 2.0 0.00 0.00 0.00 88 1014.9
20260901104510 78 157 0.0 2.0 0.00 0.00 0.00 88 1014.8
20260901104010 78 157 0.0 1.0 0.00 0.00 0.00 88 1014.8
20260901103510 78 157 0.0 1.0 0.00 0.00 0.00 88 1014.8
20260901103010 78 157 0.0 1.0 0.00 0.00 0.00 87 1014.8
20260901102511 78 157 0.0 1.0 0.00 0.00 0.00 87 1014.7
20260901102010 79 157 0.0 1.0 0.00 0.00 0.00 87 1014.6
20260901101513 79 157 0.0 1.0 0.00 0.00 0.00 87 1014.7
20260901101009 79 157 0.0 1.0 0.00 0.00 0.00 88 1014.8
20260901100508 79 157 0.0 0.0 0.00 0.00 0.00 87 1014.8
20260901100008 79 157 0.0 1.0 0.00 0.00 0.00 88 1014.8
20260901095508 79 157 0.0 1.0 0.00 0.00 0.00 88 1014.8
20260901095007 79 157 0.0 1.0 0.00 0.00 0.00 87 1014.9
20260901094507 79 157 0.0 1.0 0.00 0.00 0.00 87 1014.9
20260901094007 79 157 0.0 1.0 0.00 0.00 0.00 87 1014.9
20260901093509 79 157 0.0 0.0 0.00 0.00 0.00 87 1015.0
20260901093006 79 157 0.0 0.0 0.00 0.00 0.00 87 1014.9
20260901092506 79 157 0.0 0.0 0.00 0.00 0.00 86 1014.9
20260901092006 79 157 0.0 0.0 0.00 0.00 0.00 86 1014.9
20260901091505 79 157 0.0 0.0 0.00 0.00 0.00 86 1014.9
20260901091007 79 157 0.0 0.0 0.00 0.00 0.00 86 1014.9
20260901090504 79 157 0.0 0.0 0.00 0.00 0.00 85 1014.9
20260901090006 79 157 0.0 0.0 0.00 0.00 0.00 85 1014.9
20260901085503 79 157 0.0 1.0 0.00 0.00 0.00 85 1014.9
20260901085006 79 157 0.0 1.0 0.00 0.00 0.00 85 1014.9
20260901084502 79 157 0.0 1.0 0.00 0.00 0.00 85 1014.9
20260901084002 79 157 0.0 1.0 0.00 0.00 0.00 85 1015.0
20260901083502 79 157 0.0 0.0 0.00 0.00 0.00 85 1015.0
20260901083002 79 157 0.0 1.0 0.00 0.00 0.00 85 1015.1
20260901082501 79 157 0.0 1.0 0.00 0.00 0.00 85 1015.0
20260901082000 79 157 0.0 1.0 0.00 0.00 0.00 85 1015.1
20260901081600 79 157 0.0 1.0 0.00 0.00 0.00 85 1015.1
20260901081059 79 157 0.0 0.0 0.00 0.00 0.00 84 1015.1
20260901080559 79 157 0.0 1.0 0.00 0.00 0.00 84 1015.2
20260901080112 80 157 0.0 1.0 0.00 0.00 0.00 85 1015.3
20260901075558 80 157 0.0 1.0 0.00 0.00 0.00 85 1015.3
20260901075059 80 157 0.0 0.0 0.00 0.00 0.00 84 1015.3
20260901074619 80 157 0.0 0.0 0.00 0.00 0.00 84 1015.4
20260901074056 80 157 0.0 0.0 0.00 0.00 0.00 83 1015.3
20260901073557 80 157 0.0 0.0 0.00 0.00 0.00 83 1015.2
20260901073059 80 157 0.0 0.0 0.00 0.00 0.00 83 1015.3
20260901072558 80 157 0.0 0.0 0.00 0.00 0.00 83 1015.4
20260901072055 80 157 0.0 1.0 0.00 0.00 0.00 83 1015.4
20260901071556 80 157 0.0 1.0 0.00 0.00 0.00 83 1015.3
20260901071055 80 157 0.0 0.0 0.00 0.00 0.00 83 1015.3
20260901070554 80 157 0.0 2.0 0.00 0.00 0.00 82 1015.3
20260901070054 80 157 0.0 2.0 0.00 0.00 0.00 83 1015.3
20260901065554 80 157 0.0 2.0 0.00 0.00 0.00 82 1015.3
20260901065053 80 157 0.0 1.0 0.00 0.00 0.00 82 1015.3
20260901064553 80 157 0.0 1.0 0.00 0.00 0.00 82 1015.4
20260901064057 80 157 0.0 0.0 0.00 0.00 0.00 82 1015.4
20260901063551 81 157 0.0 1.0 0.00 0.00 0.00 81 1015.4
20260901063101 81 157 0.0 1.0 0.00 0.00 0.00 81 1015.4
20260901062551 81 157 0.0 0.0 0.00 0.00 0.00 81 1015.5
20260901062051 81 157 0.0 0.0 0.00 0.00 0.00 81 1015.5
20260901061551 81 157 0.0 1.0 0.00 0.00 0.00 81 1015.5
20260901061052 81 157 0.0 2.0 0.00 0.00 0.00 81 1015.5
20260901060551 81 157 0.0 2.0 0.00 0.00 0.00 81 1015.6
20260901060049 81 157 0.0 1.0 0.00 0.00 0.00 80 1015.6
20260901055549 81 157 0.0 0.0 0.00 0.00 0.00 80 1015.6
20260901055048 81 157 0.0 1.0 0.00 0.00 0.00 80 1015.5
20260901054548 81 157 0.0 1.0 0.00 0.00 0.00 81 1015.5
20260901054051 81 157 0.0 1.0 0.00 0.00 0.00 80 1015.5
20260901053546 82 157 0.0 0.0 0.00 0.00 0.00 80 1015.4
20260901053057 82 157 0.0 0.0 0.00 0.00 0.00 79 1015.3
20260901052545 82 157 0.0 0.0 0.00 0.00 0.00 80 1015.3
20260901052045 82 157 0.0 0.0 0.00 0.00 0.00 80 1015.3
20260901051545 82 157 0.0 1.0 0.00 0.00 0.00 80 1015.3
20260901051044 82 157 0.0 1.0 0.00 0.00 0.00 80 1015.3
20260901050547 82 157 0.0 0.0 0.00 0.00 0.00 80 1015.3
20260901050041 82 157 0.0 1.0 0.00 0.00 0.00 80 1015.2
20260901045540 82 157 0.0 1.0 0.00 0.00 0.00 80 1015.2
20260901045043 82 157 0.0 1.0 0.00 0.00 0.00 80 1015.1
20260901044549 82 157 0.0 1.0 0.00 0.00 0.00 80 1015.0
20260901044040 82 157 0.0 1.0 0.00 0.00 0.00 80 1014.9
20260901043540 82 157 0.0 2.0 0.00 0.00 0.00 79 1015.0
20260901043040 82 157 0.0 2.0 0.00 0.00 0.00 79 1014.9
20260901042539 82 157 0.0 2.0 0.00 0.00 0.00 79 1014.9
20260901042042 82 157 0.0 3.0 0.00 0.00 0.00 79 1015.0
20260901041553 83 157 1.0 3.0 0.00 0.00 0.00 79 1015.0
20260901041043 83 157 0.0 3.0 0.00 0.00 0.00 79 1015.1
20260901040539 83 157 0.0 5.0 0.00 0.00 0.00 79 1015.0
20260901040053 83 157 3.0 5.0 0.00 0.00 0.00 79 1015.1
20260901035538 83 158 1.0 5.0 0.00 0.00 0.00 78 1015.0
20260901035040 83 155 1.0 5.0 0.00 0.00 0.00 78 1015.0
20260901034539 83 155 1.0 3.0 0.00 0.00 0.00 78 1015.0
20260901034038 83 155 1.0 3.0 0.00 0.00 0.00 78 1014.9
20260901033542 83 153 0.0 6.0 0.00 0.00 0.00 78 1014.8
20260901033040 83 153 2.0 6.0 0.00 0.00 0.00 78 1014.7
20260901032538 83 149 1.0 5.0 0.00 0.00 0.00 77 1014.7
20260901032042 83 166 2.0 5.0 0.00 0.00 0.00 77 1014.6
20260901031538 83 166 1.0 3.0 0.00 0.00 0.00 76 1014.6
20260901031038 84 166 1.0 5.0 0.00 0.00 0.00 76 1014.6
20260901030538 84 166 2.0 5.0 0.00 0.00 0.00 76 1014.5
20260901030038 84 169 0.0 2.0 0.00 0.00 0.00 76 1014.5
20260901025537 84 169 0.0 3.0 0.00 0.00 0.00 75 1014.4
20260901025037 84 169 1.0 4.0 0.00 0.00 0.00 75 1014.4
20260901024539 84 169 0.0 4.0 0.00 0.00 0.00 75 1014.3
20260901024036 84 150 1.0 5.0 0.00 0.00 0.00 74 1014.2
20260901023536 84 198 1.0 5.0 0.00 0.00 0.00 73 1014.2
20260901023037 84 147 1.0 5.0 0.00 0.00 0.00 73 1014.1
20260901022536 84 169 2.0 5.0 0.00 0.00 0.00 72 1014.0
20260901022038 85 171 1.0 3.0 0.00 0.00 0.00 71 1013.9
20260901021539 85 171 0.0 4.0 0.00 0.00 0.00 71 1013.8
20260901021036 85 171 0.0 4.0 0.00 0.00 0.00 70 1013.8
20260901020536 85 167 1.0 3.0 0.00 0.00 0.00 70 1013.8
20260901020036 85 167 2.0 5.0 0.00 0.00 0.00 69 1013.7
20260901015535 86 168 1.0 5.0 0.00 0.00 0.00 69 1013.6
20260901015035 86 166 0.0 3.0 0.00 0.00 0.00 68 1013.6
20260901014535 86 148 1.0 3.0 0.00 0.00 0.00 67 1013.7
20260901014036 86 148 1.0 5.0 0.00 0.00 0.00 66 1013.7
20260901013535 86 148 0.0 5.0 0.00 0.00 0.00 65 1013.7
20260901013035 87 170 3.0 5.0 0.00 0.00 0.00 64 1013.6
20260901012534 87 171 2.0 4.0 0.00 0.00 0.00 64 1013.7
20260901012034 87 171 1.0 5.0 0.00 0.00 0.00 63 1013.7
20260901011538 87 156 2.0 5.0 0.00 0.00 0.00 63 1013.7
20260901011034 88 166 2.0 5.0 0.00 0.00 0.00 63 1013.6
20260901010534 88 160 2.0 5.0 0.00 0.00 0.00 63 1013.6
20260901010050 88 177 1.0 3.0 0.00 0.00 0.00 62 1013.5
20260901005534 88 177 0.0 3.0 0.00 0.00 0.00 62 1013.6
20260901005033 88 179 0.0 4.0 0.00 0.00 0.00 62 1013.5
20260901004536 88 179 1.0 4.0 0.00 0.00 0.00 62 1013.5
20260901004033 89 128 2.0 4.0 0.00 0.00 0.00 62 1013.5
20260901003533 89 169 2.0 5.0 0.00 0.00 0.00 62 1013.6
20260901003036 89 125 2.0 7.0 0.00 0.00 0.00 62 1013.6
20260901002533 89 123 2.0 7.0 0.00 0.00 0.00 61 1013.6
20260901002033 89 155 1.0 5.0 0.00 0.00 0.00 61 1013.7
20260901001534 89 94 1.0 4.0 0.00 0.00 0.00 61 1013.6
20260901001034 89 137 2.0 4.0 0.00 0.00 0.00 61 1013.6
20260901000531 89 137 1.0 3.0 0.00 0.00 0.00 61 1013.6
20260901000032 89 136 1.0 5.0 0.00 0.00 0.00 61 1013.7
20260831235531 89 113 2.0 5.0 0.00 0.00 0.00 61 1013.6
20260831235033 89 128 1.0 4.0 0.00 0.00 0.00 61 1013.6
20260831234530 89 171 2.0 5.0 0.00 0.00 0.00 60 1013.6
20260831234032 89 121 2.0 5.0 0.00 0.00 0.00 60 1013.7
20260831233534 89 130 2.0 6.0 0.00 0.00 0.00 60 1013.6
20260831233040 89 119 2.0 7.0 0.00 0.00 0.00 60 1013.6
20260831232531 90 91 3.0 7.0 0.00 0.00 0.00 59 1013.7
20260831232031 90 82 2.0 7.0 0.00 0.00 0.00 59 1013.6
20260831231536 90 111 3.0 8.0 0.00 0.00 0.00 58 1013.5
20260831231030 90 84 3.0 8.0 0.00 0.00 0.00 57 1013.5
20260831230529 90 124 3.0 8.0 0.00 0.00 0.00 56 1013.5
20260831230029 90 156 2.0 7.0 0.00 0.00 0.00 55 1013.6
20260831225529 90 119 1.0 7.0 0.00 0.00 0.00 54 1013.6